Location: Newark
(40.7066°N, 111.8219°W)
Time: 12:46:14
(UTC+00:00)

Transit 2A Rocket - Pass Details

Date: 27 November 2019
Orbit: 594 x 909 km, 66.7° (Epoch: 12 December)

Event Time Altitude Azimuth Distance (km) Brightness Sun altitude
Rises 01:55:37 0° 174° (S) 3,088 8.2 -21.1°
Reaches altitude 10° 01:58:28 10° 160° (SSE) 2,117 7.2 -21.6°
Enters shadow 01:59:09 13° 154° (SSE) 1,917 6.9 -21.8°
Maximum altitude 02:02:05 22° 110° (ESE) 1,429 - -22.3°
Drops below altitude 10° 02:05:31 10° 60° (ENE) 2,008 - -22.9°
Sets 02:08:08 0° 45° (NE) 2,885 - -23.4°
